Showing default

MKA PN2 (RELEK), 40070

Orbit data source: Space-Track

MKA PN2 (RELEK), 40070 is a Commonwealth of Independent States-origin payload satellite in SSO that was launched on Tue, 08 Jul 2014 UTC via a SOYUZ-2-1B launch vehicle from the Tyuratam Missile And Space Complex (TTMTR). Payload-class satellites include a variety of spacecraft equipped with specific instruments for various scientific and technological missions. These include communications satellites like Starlink; space stations such as the ISS; scientific satellites like the Hubble; Earth observation satellites from companies like Planet Labs, Umbra, and HawkEye 360; GPS; miniature CubeSats for education and research; and military/defense satellites.

Loading next visibility...
Identifier
40070, 2014-037B
Orbit
SSO
Country
Flag of CISCIS
Related business
Manufacturer
Lavochkin
Mission
Non-operational Civil Science
Bus & Motor
KARAT, Unknown motor
Mass
288 kg wet, 288 kg dry
Launch date (UTC)
2014-07-08 (11 years ago)
Launch vehicle
SOYUZ-2-1B
Launch site
Tyuratam Missile And Space Complex (TTMTR)
Object type
Payload
Rocket body
Debris
Shape & HBR
Box, 0.5 m
Radar Cross Section
1.500 m², Large (>1 m²)

Expand to show TLE details & history
Last TLE update: 15 hours ago

TLE from 15 hours ago
0 MKA PN2 (RELEK)
1 40070U 14037B   25353.46538094  .00000525  00000-0  11876-3 0  9991
2 40070  98.0501 332.5181 0129409 267.5406  91.0972 14.55385442606948
Epoch: 2025-12-19T11:10Z
TLE epoch observation values (Epoch: 2025-12-19T11:10:08.913Z)
Latitude
0.00001°
Longitude
76.67482°
Altitude
714.039 km
Speed
7.497 km/s
True Right ascension
22h 10m 04s
True Declination
0° 00' 00"
Sunlit
Object was in daylight at epoch
Visualization orbit readout
Latitude
Unknown
Longitude
Unknown
Altitude
Unknown
Speed
Unknown
Apparent Right ascension
Unknown
Apparent Declination
Unknown
Sunlit
N/A
Visualization observer readout
Local Sidereal Time
00:50:02
Azimuth
Unknown
Elevation
Unknown
Doppler factor
Unknown
Orbital elements
Apogee altitude
796.858 km
Perigee altitude
613.528 km
Semi-major axis
7,083.33 km
Eccentricity
0.01294
Inclination
98.0501°
RAAN
332.5181°
Arg. of periapsis
267.5406°
True anomaly
92.57922°
Mean anomaly
91.0972°
Eccentric anomaly
91.83828°
Mean motion
3.64072 °/min
Orbital period
98.88 mins
BSTAR
0.00011876
Loading maneuver chart data...
Computing Atmospheric mass density...
Loading historical data...
Loading historical data...
Loading historical data...
Loading historical data...
Loading historical data...
Loading historical data...
Loading historical data...

Documentation

Showing up to 5 results
|